Starlink 32677

operational
NORAD ID: 63020 Int'l Des: 2025-032 Owner: SPXS Country: US Constellation: starlink
LEOCIRCULAR

关于 Starlink 32677

正在加载描述...

实时位置

正在加载3D地球...

即将过境

高度历史

Altitude vs Time

uPlot chart will show altitude changes over time

两行轨道根数

1 63020U 25032R 25354.60522777 .00022591 00000-0 82726-3 0 9995
2 63020 43.0012 62.8017 0001642 277.0768 82.9897 15.27607556 48512
Epoch: Dec 20, 2025 • Age: 5 hours

当前状态

高度 483.4 km
速度 7.63 km/s
星下点 23.69°N, 173.92°W
发射日期 Feb 15, 2025
运行时间 0.8 years
类型 internet

技术详情

分类 Payload
质量 730.00 kg
干质量 700.00 kg
总质量 730.00 kg
长度 0.30 m
直径 4.10 m
跨度 29.00 m
形状 Box + pan
制造商 SPXS
平台类型 Starlink V2M
阶段状态 In Orbit
所有者/国家 SPXS/US

大型星座

Loading constellations...